Theta_e
309 308 308 309 309 309 310 310 310 310 310 310 310 311 310 308 308 310 312 313 317 318 323 325 331 342 342 344 344 344 349 357 354 355 354 348 346 342 341 340 342 343 338 334 338
309 309 309 309 309 309 310 310 310 310 310 310 311 311 310 308 312 316 312 317 318 318 326 328 335 344 346 344 343 344 349 353 350 350 352 350 351 344 343 344 346 343 340 341 342
310 310 310 309 309 309 310 310 310 310 310 311 311 311 309 310 324 326 316 316 319 317 317 322 335 343 347 341 343 348 351 350 349 350 348 350 353 344 344 346 346 344 343 342 342
311 310 310 310 310 310 310 310 310 310 311 311 311 312 310 316 327 329 325 319 321 319 316 321 324 343 345 350 348 351 348 346 349 348 350 351 348 344 344 344 342 342 342 342 342
313 311 310 310 310 310 310 310 311 311 314 312 311 312 319 324 325 328 323 317 318 318 322 325 326 344 351 352 352 350 350 349 347 345 350 350 351 350 345 344 342 343 343 342 341
316 313 310 309 310 311 312 314 313 316 314 312 313 314 323 326 327 328 320 319 319 318 324 325 326 339 349 348 349 350 353 351 347 349 350 351 351 349 343 343 344 345 344 342 341
316 315 311 311 311 312 314 315 316 316 314 313 313 320 324 324 327 325 315 313 315 320 320 322 336 331 347 350 349 352 356 353 349 350 351 349 353 351 344 343 345 346 345 344 342
317 316 314 311 312 313 313 314 316 318 315 314 315 323 325 329 327 322 315 319 320 320 322 322 321 337 345 343 346 355 354 355 352 350 349 350 356 351 344 344 345 345 346 345 341
318 317 316 313 312 313 314 315 315 318 316 315 325 323 322 326 326 324 321 319 318 318 318 318 325 341 343 344 345 348 352 354 355 350 350 351 356 350 348 343 344 343 343 343 341
318 319 317 314 313 313 314 320 317 320 322 323 323 322 323 324 320 322 324 322 321 316 316 319 326 335 340 339 346 349 352 354 354 354 352 351 352 350 346 348 342 342 341 340 339
319 319 318 316 313 313 315 319 314 316 326 321 321 322 323 326 321 322 322 320 316 314 316 314 327 342 342 342 341 346 351 350 351 352 353 352 351 350 348 348 347 340 340 339 340
319 320 319 317 314 312 318 317 319 319 318 319 321 322 324 323 320 320 318 316 316 316 314 313 317 320 332 337 341 341 350 346 346 348 349 351 349 348 350 347 348 345 340 339 338
319 319 320 318 314 316 316 318 318 315 319 320 321 323 324 323 320 320 317 315 314 314 314 314 319 317 322 325 330 346 346 342 342 350 352 351 350 352 349 346 347 345 342 339 339
320 319 320 320 313 312 314 317 315 316 319 322 323 323 319 318 320 319 318 317 316 314 313 314 315 318 319 322 341 346 340 341 348 350 349 344 346 343 349 350 349 347 346 342 341
321 319 320 320 317 311 317 314 318 317 326 325 323 321 318 319 321 320 317 319 321 321 319 321 322 322 322 327 339 339 339 344 348 348 346 348 349 346 348 350 350 347 345 346 342
321 319 320 318 314 313 313 316 319 321 329 327 321 321 321 321 320 319 319 319 318 319 319 319 319 320 322 323 332 337 331 331 334 342 347 343 347 344 347 350 346 347 346 345 345
320 320 319 318 311 314 315 318 323 325 324 326 321 320 320 320 321 320 319 319 318 320 321 319 321 321 323 320 321 327 324 331 344 348 347 340 346 343 343 344 345 344 343 342 344
320 320 318 317 316 314 318 318 328 326 327 325 321 319 320 319 320 319 318 318 316 317 316 321 324 321 320 322 319 319 318 322 330 334 335 341 345 340 343 342 344 344 343 344 343
319 319 318 317 314 314 314 318 319 324 326 324 320 319 320 320 321 320 318 317 317 316 320 321 325 324 328 326 319 321 330 322 332 329 335 333 337 336 342 343 344 346 346 345 344
318 316 316 318 314 317 314 314 321 322 323 321 322 319 321 321 320 319 319 319 321 316 318 319 325 323 327 328 327 327 327 332 327 335 338 335 341 341 342 344 346 348 345 343 347
318 313 317 315 316 313 317 317 321 321 322 323 323 323 319 321 320 318 320 322 321 319 318 316 319 325 327 328 329 328 329 328 328 329 333 336 336 335 339 343 343 344 342 343 346
313 316 318 318 316 312 318 320 320 322 322 322 321 321 319 319 323 322 323 323 321 320 322 319 321 329 331 327 327 327 325 327 326 331 332 333 337 337 342 342 340 339 340 339 345
313 313 320 317 321 319 317 321 323 325 325 326 325 320 319 320 323 324 325 322 320 321 320 320 323 328 329 324 325 329 326 323 324 328 336 338 334 336 340 343 341 341 337 339 346
314 320 319 315 315 319 321 321 323 322 324 321 322 320 318 319 317 322 325 323 322 327 331 320 316 324 325 324 321 330 328 326 324 328 328 334 332 332 339 340 341 336 344 345 345
314 318 319 324 323 322 320 320 323 324 322 321 325 327 325 320 319 320 321 322 324 332 317 315 317 318 320 319 320 323 327 326 328 327 332 328 334 332 333 337 338 337 344 344 343
320 321 318 320 319 321 320 322 325 324 324 324 326 326 327 323 319 321 320 320 322 323 319 315 319 319 323 323 322 325 326 327 328 328 333 333 335 330 332 334 337 337 342 343 341
314 315 318 320 321 322 320 326 327 325 323 323 325 326 329 325 325 320 317 316 317 318 318 318 318 317 321 319 320 323 322 323 327 329 333 337 332 335 334 336 337 339 340 340 339
Wind_Speed
15 14 14 13 12 11 11 10 10 9 8 8 7 7 9 9 7 4 5 4 8 9 11 12 5 5 6 3 3 1 3 3 3 4 3 6 3 3 3 8 1 2 5 11 23
16 16 15 14 12 11 11 10 10 9 8 7 6 7 8 10 5 6 3 12 12 12 14 11 4 2 3 2 2 4 3 3 2 3 1 6 4 6 4 3 4 9 16 22 21
18 17 16 14 12 11 10 9 9 8 7 6 5 6 7 7 2 4 7 14 12 9 9 6 11 3 3 2 3 2 2 4 3 4 3 5 3 3 9 3 4 11 13 14 17
20 18 15 11 9 8 8 8 8 8 6 5 4 5 6 2 3 2 3 15 11 9 10 8 4 3 3 2 2 4 7 4 1 2 4 4 7 5 11 3 7 11 16 15 11
23 21 16 10 8 8 8 9 7 6 4 3 3 4 1 1 5 1 4 16 11 10 10 5 4 4 3 3 4 3 6 7 5 1 2 5 5 5 7 7 12 12 13 12 10
27 22 16 12 10 9 10 9 6 3 2 1 1 2 2 0 3 1 7 14 11 12 6 3 5 5 5 3 2 3 6 10 7 3 6 4 4 7 7 9 12 13 12 9 12
29 25 18 14 11 10 10 9 4 2 1 1 1 2 1 4 2 2 7 8 12 12 5 6 3 4 4 4 2 6 7 4 6 3 2 1 5 5 4 11 13 12 12 10 10
29 26 21 16 13 11 10 8 4 1 2 2 2 1 4 1 4 6 8 5 6 11 5 3 2 5 3 3 4 1 3 4 5 6 4 7 1 8 6 13 11 11 10 11 8
30 28 22 18 14 15 16 13 4 4 3 3 1 2 6 4 3 6 9 3 6 6 7 3 4 4 3 4 3 3 2 2 5 10 3 5 5 11 3 8 8 9 11 10 9
31 29 24 19 16 16 16 7 6 3 3 1 1 2 3 2 3 4 6 7 1 1 3 5 5 4 3 3 3 2 2 1 2 7 5 3 4 13 8 6 9 10 10 9 8
32 30 26 22 17 13 10 2 4 3 2 5 4 3 4 3 3 4 4 5 3 7 3 4 4 7 11 5 1 1 2 3 1 4 5 6 5 13 8 6 6 7 8 9 10
33 32 26 22 18 11 3 5 5 1 6 5 4 5 7 2 2 2 7 3 2 2 3 5 6 5 6 6 6 3 1 3 1 2 2 4 5 6 6 6 10 7 8 12 6
35 33 28 24 15 2 3 2 5 4 2 6 5 4 4 8 4 7 7 3 3 3 4 5 4 7 6 5 5 4 6 4 3 4 2 3 3 5 5 5 8 7 5 7 12
36 34 29 24 4 5 4 0 15 7 4 5 3 4 4 4 2 5 9 5 1 8 5 4 4 3 4 5 7 3 7 7 8 4 2 2 3 4 3 6 5 8 6 9 13
38 35 32 20 10 3 3 10 4 2 2 1 3 2 1 7 2 3 5 3 4 4 5 6 3 2 2 4 8 4 7 6 4 4 2 3 2 4 2 5 8 9 9 9 9
41 39 32 7 5 9 7 8 3 5 4 2 4 3 5 1 1 3 3 2 2 3 1 6 2 3 4 5 3 7 9 8 5 3 3 0 3 5 2 3 3 4 10 13 10
42 39 19 7 3 7 1 3 4 3 3 3 3 2 3 4 3 5 5 2 4 3 2 4 1 4 1 7 3 3 6 4 4 3 5 3 2 8 3 4 4 6 7 9 8
42 27 13 7 10 7 1 5 3 3 5 3 2 1 5 6 4 4 5 3 4 3 3 2 5 6 4 2 7 2 6 6 6 4 3 3 4 5 2 3 4 5 5 5 6
41 16 6 10 8 7 5 3 6 5 2 5 5 3 3 3 4 4 6 6 6 9 6 4 2 4 3 2 3 4 3 3 7 3 2 3 6 3 4 3 3 2 4 3 4
26 10 10 9 15 4 5 4 3 3 3 4 5 4 1 3 6 6 6 4 5 10 3 5 2 0 3 1 8 4 5 4 4 3 3 4 4 5 5 3 3 4 4 4 6
8 4 10 11 1 5 4 6 4 5 1 1 2 1 4 3 6 5 7 3 4 4 6 4 3 4 2 5 3 2 2 7 5 3 4 2 6 5 7 6 5 5 5 6 6
7 3 6 2 3 1 3 5 4 4 3 4 3 5 4 2 3 4 8 5 6 8 7 3 5 2 1 2 2 2 3 4 5 3 2 3 6 3 6 5 5 5 6 7 8
2 3 5 1 2 3 5 4 3 2 3 3 3 5 5 3 2 4 4 2 7 7 9 7 2 3 6 6 3 1 2 4 5 3 4 4 5 1 4 4 5 6 5 5 6
2 4 4 4 1 2 4 3 4 6 3 3 4 1 2 2 5 5 4 2 3 3 10 9 3 6 7 6 4 3 4 4 5 4 5 5 5 6 7 6 4 1 2 0 4
3 1 2 4 3 4 1 3 3 5 4 5 3 3 4 1 2 5 3 2 5 6 4 5 4 4 4 4 4 4 4 7 7 5 5 4 7 8 6 7 7 5 3 2 2
2 3 4 3 3 3 2 1 2 4 2 5 1 8 6 2 5 3 1 3 6 2 3 3 2 2 5 3 5 4 6 8 4 3 4 3 6 6 2 3 6 7 6 4 3
6 3 1 3 4 2 3 0 2 5 6 6 7 6 6 4 7 10 7 4 6 9 4 5 6 3 4 2 3 3 7 6 5 5 7 6 9 2 4 3 2 6 5 5 5
Wind_Direction
354 349 344 341 336 334 331 330 330 330 331 333 333 328 322 318 310 282 247 134 166 134 140 143 135 108 59 60 13 89 63 86 62 63 64 59 118 166 65 132 121 57 112 137 150
351 345 338 335 330 329 327 326 327 326 328 328 329 322 322 323 312 245 168 152 148 142 146 149 137 118 54 58 36 58 83 128 50 29 19 332 311 152 105 158 52 75 91 120 142
351 343 337 334 331 328 327 328 328 324 325 323 317 318 324 331 298 245 157 163 156 149 154 172 153 111 64 5 47 75 68 97 58 48 5 325 254 165 133 232 198 149 138 139 146
357 348 345 347 344 341 338 332 329 328 325 318 311 322 330 355 127 132 136 174 167 160 148 144 134 107 91 48 48 79 99 130 85 125 9 355 310 166 161 229 125 153 149 146 156
4 1 1 2 5 2 355 343 337 337 340 328 324 335 357 323 255 195 153 171 171 168 169 161 143 142 136 138 131 87 134 133 124 239 2 338 17 327 187 129 113 138 151 153 166
10 7 7 11 9 7 0 353 351 4 16 2 6 3 5 131 326 205 164 160 173 171 174 194 217 171 107 146 82 124 143 140 161 100 13 22 1 357 236 126 137 152 161 176 176
12 11 10 8 7 7 4 4 17 51 92 124 105 24 325 224 342 163 162 172 174 176 157 213 183 78 128 134 100 134 124 128 151 184 152 301 306 217 210 146 158 168 172 180 193
11 8 6 3 358 355 350 343 322 236 155 142 101 14 247 290 314 192 177 163 185 203 217 201 165 102 83 140 47 96 103 147 154 142 265 142 318 352 44 153 175 175 190 188 204
7 4 1 358 351 348 349 334 241 189 159 129 39 37 282 299 221 222 210 185 168 225 231 196 126 102 78 88 18 81 143 217 131 181 125 197 114 262 272 165 181 191 197 203 201
4 1 357 353 345 355 346 52 111 129 138 6 274 9 287 222 191 194 213 225 78 5 55 66 59 86 47 94 212 208 129 255 165 194 218 244 211 204 200 215 192 198 209 202 198
360 357 354 347 342 352 344 102 15 2 168 208 222 251 279 279 169 200 181 120 99 58 100 14 82 199 198 190 191 291 134 130 204 152 169 194 211 192 222 225 206 214 197 209 207
358 354 350 345 336 342 24 98 144 216 312 238 239 273 267 268 145 241 161 115 105 143 109 28 233 206 184 202 226 233 167 184 357 124 132 172 214 190 182 229 220 215 201 198 183
354 352 347 343 328 354 331 170 200 309 141 297 202 191 197 151 212 201 135 146 115 130 168 162 238 105 163 201 221 187 192 165 151 120 56 104 304 188 212 209 217 246 221 204 187
350 349 343 342 318 337 275 121 325 172 59 281 269 272 120 119 242 191 165 135 133 196 167 229 265 224 168 217 145 229 164 134 129 98 212 6 270 252 192 219 219 221 202 200 206
347 345 337 330 295 255 157 327 1 108 39 202 217 141 83 139 185 210 178 76 190 184 115 256 265 242 235 225 159 243 118 114 115 93 84 354 58 257 200 210 222 219 212 217 206
344 341 330 315 241 244 299 315 120 42 256 298 185 166 123 136 226 112 139 88 171 160 293 242 274 220 207 60 96 124 83 56 58 82 9 292 142 283 254 231 272 254 211 206 211
342 337 315 223 223 144 0 49 43 147 306 334 251 165 174 202 216 151 157 165 176 105 326 331 254 302 192 90 48 95 64 23 20 15 222 344 39 244 254 303 284 265 249 217 214
340 337 322 250 221 238 113 53 198 238 256 313 340 93 180 167 231 156 122 196 219 102 105 126 347 6 350 163 169 85 137 149 189 194 248 42 238 272 132 15 349 358 346 202 183
340 342 11 356 178 167 83 108 211 209 295 326 317 174 223 242 183 143 198 198 215 180 151 128 330 315 46 66 102 186 83 165 105 14 61 233 291 299 175 14 340 293 6 329 210
338 335 358 355 161 93 81 218 237 223 317 36 35 5 214 242 168 166 169 213 210 196 122 195 112 90 270 87 47 101 142 72 18 142 257 290 275 239 216 239 238 215 242 268 278
358 35 21 94 354 50 153 222 265 254 289 326 244 258 254 263 180 183 200 273 195 109 93 125 104 286 353 23 155 51 62 54 107 110 163 262 265 216 192 206 203 242 271 273 286
356 38 353 264 52 40 157 193 229 275 287 257 192 203 232 283 257 202 189 229 160 137 141 147 124 109 74 341 2 93 129 131 119 217 107 152 277 228 210 192 168 216 264 301 303
5 273 350 38 114 324 308 287 248 291 324 336 286 206 221 222 245 184 192 189 159 141 165 184 45 70 357 353 8 272 129 96 103 97 188 141 263 224 261 253 239 270 267 315 322
17 352 330 36 36 90 4 299 317 339 263 345 265 14 271 286 187 215 192 101 147 110 82 89 111 154 186 198 156 180 174 154 113 121 175 225 283 282 255 215 181 198 342 10 75
31 329 169 325 351 349 287 289 333 356 326 353 360 56 306 299 345 230 173 103 36 150 76 111 140 167 195 204 185 214 196 170 193 175 167 224 206 266 242 205 179 173 195 296 29
32 15 350 282 313 311 321 95 9 358 288 292 167 324 307 234 188 251 179 199 179 204 94 11 139 155 186 219 194 183 206 199 197 171 271 184 258 234 84 114 146 187 187 231 262
5 359 109 294 322 355 235 173 357 348 282 263 332 333 288 247 303 255 213 207 215 149 134 121 132 119 229 14 354 320 212 187 189 189 154 181 228 120 126 168 182 167 194 209 247